Location: ??
(35.5138°N, 139.6953°E)
Time: 08:59:49
(UTC+00:00)

USA 245 - Pass Details

Date: 07 June 2020
Orbit: 269 x 1014 km, 97.9° (Epoch: 01 July)

Event Time Altitude Azimuth Distance (km) Brightness Sun altitude
Exits shadow 11:31:34 25° 56° (NE) 698 3.7 -16.5°
Drops below altitude 10° 11:33:14 10° 15° (NNE) 1,170 5.4 -16.8°
Sets 11:35:05 0° 2° (N) 1,946 6.8 -17.0°
